,,PA_Meas_PMT16A,,PR_Meas_QMR101_102,,RH_Meas_QMH101,,SR_Meas_QMS101,,TA_Meas_QMH101,,GenWind,,GenWind,
time,status,PA,status,PR,status,RH,status,SR,status,TA,status,DirAvg,status,SpdAvg,
2012-07-02, 00:00:04,VALID,916.303,VALID,0.4,VALID,97.0918,VALID,0,VALID,19.7643,VALID,94,VALID,0,
2012-07-02, 00:01:04,VALID,916.297,VALID,0.6,VALID,97.0842,VALID,0,VALID,19.7838,VALID,106,VALID,0,
2012-07-02, 00:02:04,VALID,916.315,VALID,0.2,VALID,97.0918,VALID,0,VALID,19.8228,VALID,107,VALID,0,
2012-07-02, 00:03:04,VALID,916.33,VALID,0.2,VALID,97.1071,VALID,0,VALID,19.8423,VALID,107,VALID,0,
2012-07-02, 00:04:04,VALID,916.335,VALID,0.4,VALID,97.1071,VALID,0,VALID,19.8423,VALID,106,VALID,0,
2012-07-02, 00:05:04,VALID,916.29,VALID,1.2,VALID,97.0994,VALID,0,VALID,19.8618,VALID,107,VALID,0,
2012-07-02, 00:06:04,VALID,916.284,VALID,0.8,VALID,97.1223,VALID,0,VALID,19.8813,VALID,106,VALID,0,
2012-07-02, 00:07:04,VALID,916.263,VALID,0.4,VALID,97.0766,VALID,0,VALID,19.8813,VALID,107,VALID,0,
2012-07-02, 00:08:04,VALID,916.264,VALID,0.4,VALID,97.1376,VALID,0,VALID,19.9203,VALID,106,VALID,0,
2012-07-02, 00:09:04,VALID,916.24,VALID,0.2,VALID,97.0766,VALID,0,VALID,19.9203,VALID,107,VALID,0,
2012-07-02, 00:10:04,VALID,916.267,VALID,0.4,VALID,97.0308,VALID,0.107441,VALID,19.8408,VALID,106,VALID,0,
2012-07-02, 00:11:04,VALID,916.227,VALID,0.2,VALID,97.0537,VALID,0.107441,VALID,19.8003,VALID,106,VALID,0,
2012-07-02, 00:12:04,VALID,916.24,VALID,0.4,VALID,97.0537,VALID,0.107441,VALID,19.7823,VALID,106,VALID,0,
2012-07-02, 00:13:04,VALID,916.252,VALID,1,VALID,97.1147,VALID,0.107441,VALID,19.8018,VALID,107,VALID,0,
2012-07-02, 00:14:04,VALID,916.17,VALID,1,VALID,97.1452,VALID,0,VALID,19.8018,VALID,106,VALID,0,
2012-07-02, 00:15:04,VALID,916.181,VALID,0.6,VALID,97.1757,VALID,0.107441,VALID,19.8213,VALID,106,VALID,0,
2012-07-02, 00:16:04,VALID,916.209,VALID,0,VALID,97.1757,VALID,0,VALID,19.8213,VALID,107,VALID,0,
2012-07-02, 00:17:04,VALID,916.214,VALID,0.2,VALID,97.2138,VALID,0,VALID,19.8408,VALID,106,VALID,0,
2012-07-02, 00:18:04,VALID,916.184,VALID,0.2,VALID,97.1986,VALID,0,VALID,19.8603,VALID,107,VALID,0,
2012-07-02, 00:19:04,VALID,916.172,VALID,0,VALID,97.229,VALID,0.107441,VALID,19.8588,VALID,107,VALID,0,
2012-07-02, 00:20:04,VALID,916.161,VALID,0.2,VALID,97.2062,VALID,0.107441,VALID,19.8798,VALID,107,VALID,0,
2012-07-02, 00:21:04,VALID,916.156,VALID,0.2,VALID,97.2062,VALID,0.107441,VALID,19.8783,VALID,106,VALID,0,
2012-07-02, 00:22:04,VALID,916.15,VALID,0.4,VALID,97.1681,VALID,0,VALID,19.9203,VALID,106,VALID,0,
2012-07-02, 00:23:04,VALID,916.13,VALID,0.2,VALID,97.2062,VALID,0.107441,VALID,19.8798,VALID,107,VALID,0,
2012-07-02, 00:24:04,VALID,916.139,VALID,0.2,VALID,97.1909,VALID,0.107441,VALID,19.8603,VALID,107,VALID,0,
2012-07-02, 00:25:04,VALID,916.136,VALID,0.2,VALID,97.1833,VALID,0,VALID,19.8423,VALID,106,VALID,0,
2012-07-02, 00:26:04,VALID,916.128,VALID,0.2,VALID,97.1833,VALID,0,VALID,19.8423,VALID,107,VALID,0,
2012-07-02, 00:27:04,VALID,916.099,VALID,0,VALID,97.1833,VALID,0,VALID,19.8228,VALID,106,VALID,0,
2012-07-02, 00:28:04,VALID,916.07,VALID,0,VALID,97.2138,VALID,0,VALID,19.8423,VALID,106,VALID,0,
2012-07-02, 00:29:04,VALID,916.036,VALID,0.2,VALID,97.229,VALID,0,VALID,19.8228,VALID,106,VALID,0,
2012-07-02, 00:30:04,VALID,916.008,VALID,0,VALID,97.229,VALID,0,VALID,19.8228,VALID,106,VALID,0,
2012-07-02, 00:31:04,VALID,915.991,VALID,0,VALID,97.2367,VALID,0,VALID,19.8228,VALID,106,VALID,0,
2012-07-02, 00:32:04,VALID,915.994,VALID,0,VALID,97.2367,VALID,0,VALID,19.8033,VALID,106,VALID,0,
2012-07-02, 00:33:04,VALID,915.986,VALID,0.2,VALID,97.2367,VALID,0,VALID,19.8033,VALID,106,VALID,0,
2012-07-02, 00:34:04,VALID,915.986,VALID,0,VALID,97.2443,VALID,0,VALID,19.7838,VALID,106,VALID,0,
2012-07-02, 00:35:04,VALID,915.979,VALID,0,VALID,97.2595,VALID,0,VALID,19.7643,VALID,106,VALID,0,
2012-07-02, 00:36:04,VALID,915.964,VALID,0.2,VALID,97.2672,VALID,0,VALID,19.7838,VALID,106,VALID,0,
2012-07-02, 00:37:04,VALID,915.965,VALID,0,VALID,97.2595,VALID,0,VALID,19.8048,VALID,107,VALID,0,
2012-07-02, 00:38:04,VALID,915.967,VALID,0,VALID,97.2748,VALID,0,VALID,19.7838,VALID,106,VALID,0,
2012-07-02, 00:39:04,VALID,915.952,VALID,0,VALID,97.2672,VALID,0,VALID,19.7838,VALID,107,VALID,0,
2012-07-02, 00:40:04,VALID,915.927,VALID,0.2,VALID,97.2748,VALID,0,VALID,19.8033,VALID,107,VALID,0,
2012-07-02, 00:41:04,VALID,915.874,VALID,0,VALID,97.2977,VALID,0,VALID,19.8243,VALID,107,VALID,0,
2012-07-02, 00:42:04,VALID,915.875,VALID,0,VALID,97.29,VALID,0,VALID,19.8033,VALID,107,VALID,0,
2012-07-02, 00:43:04,VALID,915.86,VALID,0,VALID,97.29,VALID,0,VALID,19.8228,VALID,106,VALID,0,
2012-07-02, 00:44:04,VALID,915.841,VALID,0,VALID,97.3053,VALID,0,VALID,19.8033,VALID,107,VALID,0,
2012-07-02, 00:45:04,VALID,915.825,VALID,0,VALID,97.3358,VALID,0,VALID,19.8033,VALID,107,VALID,0,
2012-07-02, 00:46:04,VALID,915.844,VALID,0,VALID,97.3205,VALID,0,VALID,19.8033,VALID,195,VALID,0,
2012-07-02, 00:47:04,VALID,915.858,VALID,0,VALID,97.3053,VALID,0,VALID,19.8228,VALID,222,VALID,0,
2012-07-02, 00:48:04,VALID,915.837,VALID,0.2,VALID,97.29,VALID,0,VALID,19.8228,VALID,218,VALID,0,
2012-07-02, 00:49:04,VALID,915.879,VALID,0,VALID,97.3205,VALID,0,VALID,19.8213,VALID,223,VALID,0,
2012-07-02, 00:50:04,VALID,915.856,VALID,0,VALID,97.3434,VALID,0,VALID,19.8228,VALID,226,VALID,0,
2012-07-02, 00:51:04,VALID,915.84,VALID,0,VALID,97.3129,VALID,0,VALID,19.8033,VALID,238,VALID,0,
2012-07-02, 00:52:04,VALID,915.818,VALID,0,VALID,97.3358,VALID,0,VALID,19.7448,VALID,228,VALID,0,
2012-07-02, 00:53:04,VALID,915.774,VALID,0,VALID,97.3358,VALID,0,VALID,19.7253,VALID,247,VALID,0.202734,
2012-07-02, 00:54:04,VALID,915.752,VALID,0,VALID,97.3129,VALID,0,VALID,19.7058,VALID,244,VALID,0,
2012-07-02, 00:55:04,VALID,915.74,VALID,0,VALID,97.3281,VALID,0,VALID,19.7253,VALID,227,VALID,0,
2012-07-02, 00:56:04,VALID,915.704,VALID,0,VALID,97.3434,VALID,0,VALID,19.6668,VALID,215,VALID,0,
2012-07-02, 00:57:04,VALID,915.706,VALID,0,VALID,97.351,VALID,0,VALID,19.7058,VALID,215,VALID,0,
2012-07-02, 00:58:04,VALID,915.667,VALID,0,VALID,97.3586,VALID,0,VALID,19.6848,VALID,215,VALID,0,
2012-07-02, 00:59:04,VALID,915.664,VALID,0,VALID,97.351,VALID,0,VALID,19.7448,VALID,215,VALID,0,
2012-07-02, 01:00:04,VALID,915.671,VALID,0,VALID,97.3663,VALID,0,VALID,19.7043,VALID,216,VALID,0,
2012-07-02, 01:01:04,VALID,915.658,VALID,0,VALID,97.3663,VALID,0,VALID,19.6863,VALID,216,VALID,0,
2012-07-02, 01:02:04,VALID,915.642,VALID,0,VALID,97.3815,VALID,0,VALID,19.7073,VALID,229,VALID,0,
2012-07-02, 01:03:04,VALID,915.623,VALID,0,VALID,97.3815,VALID,0,VALID,19.6668,VALID,212,VALID,0,
2012-07-02, 01:04:04,VALID,915.648,VALID,0,VALID,97.3891,VALID,0,VALID,19.6668,VALID,212,VALID,0,
2012-07-02, 01:05:04,VALID,915.652,VALID,0,VALID,97.3815,VALID,0,VALID,19.7058,VALID,211,VALID,0,
2012-07-02, 01:06:04,VALID,915.63,VALID,0,VALID,97.3891,VALID,0,VALID,19.6668,VALID,212,VALID,0,
2012-07-02, 01:07:04,VALID,915.616,VALID,0,VALID,97.3891,VALID,0,VALID,19.6863,VALID,212,VALID,0,
2012-07-02, 01:08:04,VALID,915.58,VALID,0,VALID,97.3891,VALID,0.107441,VALID,19.6653,VALID,212,VALID,0,
2012-07-02, 01:09:04,VALID,915.569,VALID,0,VALID,97.4196,VALID,0.107441,VALID,19.6443,VALID,212,VALID,0,
2012-07-02, 01:10:04,VALID,915.532,VALID,0,VALID,97.3968,VALID,0,VALID,19.6473,VALID,212,VALID,0,
2012-07-02, 01:11:04,VALID,915.538,VALID,0,VALID,97.4273,VALID,0,VALID,19.6668,VALID,211,VALID,0,
2012-07-02, 01:12:04,VALID,915.521,VALID,0,VALID,97.3891,VALID,0,VALID,19.6278,VALID,211,VALID,0,
2012-07-02, 01:13:04,VALID,915.521,VALID,0,VALID,97.4273,VALID,0,VALID,19.6473,VALID,211,VALID,0,
2012-07-02, 01:14:04,VALID,915.477,VALID,0,VALID,97.4044,VALID,0,VALID,19.6278,VALID,211,VALID,0,
2012-07-02, 01:15:04,VALID,915.452,VALID,0,VALID,97.4196,VALID,0,VALID,19.6668,VALID,211,VALID,0,
2012-07-02, 01:16:04,VALID,915.504,VALID,0,VALID,97.4196,VALID,0,VALID,19.6473,VALID,211,VALID,0,
2012-07-02, 01:17:04,VALID,915.543,VALID,0,VALID,97.412,VALID,0,VALID,19.6278,VALID,211,VALID,0,
2012-07-02, 01:18:04,VALID,915.548,VALID,0,VALID,97.4273,VALID,0,VALID,19.6278,VALID,211,VALID,0,
2012-07-02, 01:19:04,VALID,915.558,VALID,0,VALID,97.4425,VALID,0,VALID,19.6278,VALID,167,VALID,0,
2012-07-02, 01:20:04,VALID,915.573,VALID,0,VALID,97.4425,VALID,0,VALID,19.6473,VALID,128,VALID,0,
2012-07-02, 01:21:04,VALID,915.56,VALID,0,VALID,97.4273,VALID,0,VALID,19.6488,VALID,123,VALID,0,
2012-07-02, 01:22:04,VALID,915.551,VALID,0,VALID,97.4044,VALID,0,VALID,19.6473,VALID,136,VALID,0,
2012-07-02, 01:23:04,VALID,915.531,VALID,0,VALID,97.4425,VALID,0,VALID,19.6473,VALID,136,VALID,0,
2012-07-02, 01:24:04,VALID,915.525,VALID,0,VALID,97.4425,VALID,0,VALID,19.6668,VALID,136,VALID,0,
2012-07-02, 01:25:04,VALID,915.511,VALID,0,VALID,97.4349,VALID,0,VALID,19.6668,VALID,136,VALID,0,
2012-07-02, 01:26:04,VALID,915.507,VALID,0,VALID,97.4425,VALID,0,VALID,19.6653,VALID,136,VALID,0,
2012-07-02, 01:27:04,VALID,915.505,VALID,0,VALID,97.4577,VALID,0,VALID,19.6863,VALID,164,VALID,0,
2012-07-02, 01:28:04,VALID,915.506,VALID,0,VALID,97.4425,VALID,0,VALID,19.6863,VALID,150,VALID,0,
2012-07-02, 01:29:04,VALID,915.518,VALID,0,VALID,97.4501,VALID,0,VALID,19.6863,VALID,150,VALID,0,
2012-07-02, 01:30:04,VALID,915.492,VALID,0,VALID,97.4654,VALID,0,VALID,19.7058,VALID,170,VALID,0,
2012-07-02, 01:31:04,VALID,915.507,VALID,0,VALID,97.4349,VALID,0,VALID,19.7058,VALID,133,VALID,0,
2012-07-02, 01:32:04,VALID,915.537,VALID,0,VALID,97.4654,VALID,0,VALID,19.7058,VALID,143,VALID,0,
2012-07-02, 01:33:04,VALID,915.548,VALID,0,VALID,97.4806,VALID,0,VALID,19.7253,VALID,145,VALID,0,
2012-07-02, 01:34:04,VALID,915.525,VALID,0,VALID,97.4501,VALID,0,VALID,19.7253,VALID,145,VALID,0,
2012-07-02, 01:35:04,VALID,915.515,VALID,0,VALID,97.4577,VALID,0,VALID,19.7058,VALID,145,VALID,0,
2012-07-02, 01:36:04,VALID,915.555,VALID,0,VALID,97.473,VALID,0,VALID,19.6848,VALID,145,VALID,0,
2012-07-02, 01:37:04,VALID,915.542,VALID,0,VALID,97.4577,VALID,0,VALID,19.7043,VALID,145,VALID,0,
2012-07-02, 01:38:04,VALID,915.543,VALID,0,VALID,97.4654,VALID,0,VALID,19.7253,VALID,145,VALID,0,
2012-07-02, 01:39:04,VALID,915.501,VALID,0,VALID,97.4882,VALID,0,VALID,19.7253,VALID,145,VALID,0,
2012-07-02, 01:40:04,VALID,915.482,VALID,0,VALID,97.4501,VALID,0,VALID,19.7448,VALID,145,VALID,0,
2012-07-02, 01:41:04,VALID,915.46,VALID,0,VALID,97.4577,VALID,0,VALID,19.7253,VALID,145,VALID,0,
2012-07-02, 01:42:04,VALID,915.454,VALID,0,VALID,97.4806,VALID,0,VALID,19.7253,VALID,145,VALID,0,
2012-07-02, 01:43:04,VALID,915.431,VALID,0,VALID,97.4577,VALID,0,VALID,19.7448,VALID,145,VALID,0,
2012-07-02, 01:44:04,VALID,915.374,VALID,0,VALID,97.473,VALID,0,VALID,19.7253,VALID,145,VALID,0,
2012-07-02, 01:45:04,VALID,915.398,VALID,0,VALID,97.4806,VALID,0,VALID,19.7253,VALID,145,VALID,0,
2012-07-02, 01:46:04,VALID,915.389,VALID,0,VALID,97.4959,VALID,0,VALID,19.7268,VALID,145,VALID,0,
2012-07-02, 01:47:04,VALID,915.382,VALID,0,VALID,97.4882,VALID,0,VALID,19.7058,VALID,145,VALID,0,
2012-07-02, 01:48:04,VALID,915.356,VALID,0,VALID,97.4882,VALID,0,VALID,19.7058,VALID,144,VALID,0,
2012-07-02, 01:49:04,VALID,915.342,VALID,0,VALID,97.473,VALID,0,VALID,19.7058,VALID,144,VALID,0,
2012-07-02, 01:50:04,VALID,915.302,VALID,0.2,VALID,97.4882,VALID,0,VALID,19.6668,VALID,138,VALID,0,
2012-07-02, 01:51:04,VALID,915.343,VALID,0,VALID,97.5035,VALID,0,VALID,19.6863,VALID,138,VALID,0,
2012-07-02, 01:52:04,VALID,915.267,VALID,0,VALID,97.4806,VALID,0,VALID,19.6863,VALID,138,VALID,0,
2012-07-02, 01:53:04,VALID,915.262,VALID,0,VALID,97.473,VALID,0,VALID,19.7058,VALID,138,VALID,0,
2012-07-02, 01:54:04,VALID,915.244,VALID,0,VALID,97.4882,VALID,0,VALID,19.7253,VALID,138,VALID,0,
2012-07-02, 01:55:04,VALID,915.269,VALID,0,VALID,97.4806,VALID,0,VALID,19.7253,VALID,138,VALID,0,
2012-07-02, 01:56:04,VALID,915.266,VALID,0,VALID,97.4882,VALID,0,VALID,19.7253,VALID,138,VALID,0,
2012-07-02, 01:57:04,VALID,915.226,VALID,0,VALID,97.5035,VALID,0,VALID,19.7253,VALID,138,VALID,0,
2012-07-02, 01:58:04,VALID,915.198,VALID,0,VALID,97.4959,VALID,0,VALID,19.6653,VALID,138,VALID,0,
2012-07-02, 01:59:04,VALID,915.18,VALID,0,VALID,97.4882,VALID,0,VALID,19.6473,VALID,138,VALID,0,
2012-07-02, 02:00:04,VALID,915.13,VALID,0,VALID,97.5111,VALID,0,VALID,19.6863,VALID,138,VALID,0,
2012-07-02, 02:01:04,VALID,915.126,VALID,0,VALID,97.4806,VALID,0,VALID,19.6473,VALID,138,VALID,0,
2012-07-02, 02:02:04,VALID,915.101,VALID,0,VALID,97.473,VALID,0,VALID,19.6473,VALID,138,VALID,0,
2012-07-02, 02:03:04,VALID,915.083,VALID,0,VALID,97.5111,VALID,0,VALID,19.6668,VALID,138,VALID,0,
2012-07-02, 02:04:04,VALID,915.122,VALID,0,VALID,97.5035,VALID,0,VALID,19.6668,VALID,138,VALID,0,
2012-07-02, 02:05:04,VALID,915.105,VALID,0,VALID,97.5111,VALID,0,VALID,19.6473,VALID,138,VALID,0,
2012-07-02, 02:06:04,VALID,915.109,VALID,0,VALID,97.534,VALID,0,VALID,19.6473,VALID,138,VALID,0,
2012-07-02, 02:07:04,VALID,915.083,VALID,0,VALID,97.5035,VALID,0,VALID,19.6863,VALID,138,VALID,0,
2012-07-02, 02:08:04,VALID,915.05,VALID,0,VALID,97.5111,VALID,0,VALID,19.6668,VALID,138,VALID,0,
2012-07-02, 02:09:04,VALID,915.058,VALID,0,VALID,97.4959,VALID,0,VALID,19.6668,VALID,138,VALID,0,
2012-07-02, 02:10:04,VALID,915.04,VALID,0,VALID,97.5035,VALID,0,VALID,19.6668,VALID,138,VALID,0,
2012-07-02, 02:11:04,VALID,915.027,VALID,0,VALID,97.5187,VALID,0,VALID,19.6668,VALID,138,VALID,0,
2012-07-02, 02:12:04,VALID,915.031,VALID,0,VALID,97.5111,VALID,0,VALID,19.6668,VALID,138,VALID,0,
2012-07-02, 02:13:04,VALID,915.015,VALID,0,VALID,97.5416,VALID,0,VALID,19.6668,VALID,138,VALID,0,
2012-07-02, 02:14:04,VALID,914.986,VALID,0,VALID,97.5264,VALID,0,VALID,19.6473,VALID,138,VALID,0,
2012-07-02, 02:15:04,VALID,914.977,VALID,0,VALID,97.5264,VALID,0,VALID,19.6473,VALID,138,VALID,0,
2012-07-02, 02:16:04,VALID,914.988,VALID,0,VALID,97.5416,VALID,0,VALID,19.6473,VALID,138,VALID,0,
2012-07-02, 02:17:04,VALID,914.947,VALID,0,VALID,97.534,VALID,0,VALID,19.6083,VALID,138,VALID,0,
2012-07-02, 02:18:04,VALID,914.961,VALID,0,VALID,97.5187,VALID,0,VALID,19.6083,VALID,138,VALID,0,
2012-07-02, 02:19:04,VALID,914.94,VALID,0,VALID,97.534,VALID,0,VALID,19.6083,VALID,138,VALID,0,
2012-07-02, 02:20:04,VALID,914.959,VALID,0,VALID,97.5416,VALID,0,VALID,19.6083,VALID,138,VALID,0,
2012-07-02, 02:21:04,VALID,914.968,VALID,0,VALID,97.5416,VALID,0,VALID,19.5888,VALID,138,VALID,0,
2012-07-02, 02:22:04,VALID,914.921,VALID,0,VALID,97.5416,VALID,0,VALID,19.5888,VALID,138,VALID,0,
2012-07-02, 02:23:04,VALID,914.903,VALID,0,VALID,97.534,VALID,0,VALID,19.5693,VALID,138,VALID,0,
2012-07-02, 02:24:04,VALID,914.899,VALID,0,VALID,97.5492,VALID,0,VALID,19.5888,VALID,138,VALID,0,
2012-07-02, 02:25:04,VALID,914.883,VALID,0,VALID,97.5569,VALID,0,VALID,19.5888,VALID,138,VALID,0,
2012-07-02, 02:26:04,VALID,914.83,VALID,0,VALID,97.534,VALID,0,VALID,19.6293,VALID,138,VALID,0,
2012-07-02, 02:27:04,VALID,914.866,VALID,0,VALID,97.5492,VALID,0,VALID,19.6083,VALID,138,VALID,0,
2012-07-02, 02:28:04,VALID,914.822,VALID,0,VALID,97.534,VALID,0,VALID,19.5888,VALID,138,VALID,0,
2012-07-02, 02:29:04,VALID,914.808,VALID,0,VALID,97.5492,VALID,0,VALID,19.5888,VALID,138,VALID,0,
2012-07-02, 02:30:04,VALID,914.802,VALID,0,VALID,97.5416,VALID,0,VALID,19.5888,VALID,138,VALID,0,
2012-07-02, 02:31:04,VALID,914.81,VALID,0,VALID,97.5645,VALID,0,VALID,19.5888,VALID,138,VALID,0,
2012-07-02, 02:32:04,VALID,914.744,VALID,0,VALID,97.5569,VALID,0,VALID,19.5693,VALID,138,VALID,0,
2012-07-02, 02:33:04,VALID,914.732,VALID,0,VALID,97.5264,VALID,0,VALID,19.5708,VALID,138,VALID,0,
2012-07-02, 02:34:04,VALID,914.705,VALID,0,VALID,97.5569,VALID,0,VALID,19.5693,VALID,138,VALID,0,
2012-07-02, 02:35:04,VALID,914.714,VALID,0,VALID,97.5416,VALID,0,VALID,19.5693,VALID,119,VALID,0,
2012-07-02, 02:36:04,VALID,914.666,VALID,0,VALID,97.5492,VALID,0,VALID,19.5903,VALID,119,VALID,0,
2012-07-02, 02:37:04,VALID,914.637,VALID,0,VALID,97.5645,VALID,0,VALID,19.5693,VALID,119,VALID,0,
2012-07-02, 02:38:04,VALID,914.66,VALID,0,VALID,97.5645,VALID,0,VALID,19.5693,VALID,119,VALID,0,
2012-07-02, 02:39:04,VALID,914.654,VALID,0,VALID,97.5569,VALID,0,VALID,19.5498,VALID,123,VALID,0,
2012-07-02, 02:40:04,VALID,914.638,VALID,0,VALID,97.5569,VALID,0,VALID,19.5288,VALID,125,VALID,0,
2012-07-02, 02:41:04,VALID,914.638,VALID,0,VALID,97.5569,VALID,0,VALID,19.5498,VALID,132,VALID,0,
2012-07-02, 02:42:04,VALID,914.63,VALID,0,VALID,97.5645,VALID,0,VALID,19.5483,VALID,136,VALID,0,
2012-07-02, 02:43:04,VALID,914.632,VALID,0,VALID,97.5492,VALID,0,VALID,19.5693,VALID,135,VALID,0,
2012-07-02, 02:44:05,VALID,914.58,VALID,0,VALID,97.5873,VALID,0.107441,VALID,19.5693,VALID,136,VALID,0,
2012-07-02, 02:45:05,VALID,914.573,VALID,0,VALID,97.5797,VALID,0,VALID,19.5483,VALID,136,VALID,0,
2012-07-02, 02:46:05,VALID,914.543,VALID,0,VALID,97.5492,VALID,0,VALID,19.5888,VALID,135,VALID,0,
2012-07-02, 02:47:05,VALID,914.568,VALID,0,VALID,97.5721,VALID,0,VALID,19.5498,VALID,135,VALID,0,
2012-07-02, 02:48:05,VALID,914.53,VALID,0,VALID,97.5721,VALID,0,VALID,19.5498,VALID,136,VALID,0,
2012-07-02, 02:49:05,VALID,914.513,VALID,0,VALID,97.5721,VALID,0,VALID,19.5483,VALID,136,VALID,0,
2012-07-02, 02:50:05,VALID,914.507,VALID,0,VALID,97.5797,VALID,0.107441,VALID,19.5498,VALID,135,VALID,0,
2012-07-02, 02:51:05,VALID,914.475,VALID,0,VALID,97.5797,VALID,0,VALID,19.5498,VALID,135,VALID,0,
2012-07-02, 02:52:05,VALID,914.471,VALID,0,VALID,97.5797,VALID,0,VALID,19.5483,VALID,135,VALID,0,
2012-07-02, 02:53:05,VALID,914.441,VALID,0,VALID,97.5721,VALID,0.107441,VALID,19.5483,VALID,135,VALID,0,
2012-07-02, 02:54:05,VALID,914.42,VALID,0,VALID,97.5873,VALID,0,VALID,19.5693,VALID,135,VALID,0,
2012-07-02, 02:55:05,VALID,914.42,VALID,0,VALID,97.5645,VALID,0,VALID,19.5288,VALID,136,VALID,0,
2012-07-02, 02:56:05,VALID,914.383,VALID,0,VALID,97.5721,VALID,0,VALID,19.5498,VALID,136,VALID,0,
2012-07-02, 02:57:05,VALID,914.384,VALID,0,VALID,97.5873,VALID,0,VALID,19.5288,VALID,136,VALID,0,
2012-07-02, 02:58:05,VALID,914.386,VALID,0,VALID,97.5873,VALID,0,VALID,19.5303,VALID,136,VALID,0,
2012-07-02, 02:59:05,VALID,914.373,VALID,0,VALID,97.5797,VALID,0,VALID,19.5303,VALID,135,VALID,0,
2012-07-02, 03:00:05,VALID,914.38,VALID,0,VALID,97.6026,VALID,0,VALID,19.5093,VALID,135,VALID,0,
2012-07-02, 03:01:05,VALID,914.363,VALID,0,VALID,97.5873,VALID,0.107441,VALID,19.4898,VALID,130,VALID,0,
2012-07-02, 03:02:05,VALID,914.335,VALID,0,VALID,97.6102,VALID,0,VALID,19.4898,VALID,130,VALID,0,
2012-07-02, 03:03:05,VALID,914.315,VALID,0,VALID,97.595,VALID,0,VALID,19.4913,VALID,130,VALID,0,
2012-07-02, 03:04:05,VALID,914.291,VALID,0,VALID,97.5797,VALID,0,VALID,19.4913,VALID,130,VALID,0,
2012-07-02, 03:05:05,VALID,914.272,VALID,0,VALID,97.5873,VALID,0,VALID,19.5108,VALID,130,VALID,0,
2012-07-02, 03:06:05,VALID,914.273,VALID,0,VALID,97.5873,VALID,0,VALID,19.4703,VALID,130,VALID,0,
2012-07-02, 03:07:05,VALID,914.256,VALID,0,VALID,97.6102,VALID,0.107441,VALID,19.4508,VALID,137,VALID,0,
2012-07-02, 03:08:05,VALID,914.242,VALID,0,VALID,97.5873,VALID,0.107441,VALID,19.4913,VALID,137,VALID,0,
2012-07-02, 03:09:05,VALID,914.239,VALID,0,VALID,97.595,VALID,0,VALID,19.4718,VALID,124,VALID,0,
2012-07-02, 03:10:05,VALID,914.23,VALID,0,VALID,97.595,VALID,0,VALID,19.4718,VALID,134,VALID,0,
2012-07-02, 03:11:05,VALID,914.24,VALID,0,VALID,97.595,VALID,0,VALID,19.4523,VALID,134,VALID,0,
2012-07-02, 03:12:05,VALID,914.196,VALID,0,VALID,97.6178,VALID,0,VALID,19.4732,VALID,134,VALID,0,
2012-07-02, 03:13:05,VALID,914.193,VALID,0,VALID,97.6407,VALID,0,VALID,19.4523,VALID,134,VALID,0,
2012-07-02, 03:14:05,VALID,914.141,VALID,0,VALID,97.595,VALID,0,VALID,19.4327,VALID,134,VALID,0,
2012-07-02, 03:15:05,VALID,914.147,VALID,0,VALID,97.6178,VALID,0,VALID,19.4523,VALID,134,VALID,0,
2012-07-02, 03:16:05,VALID,914.173,VALID,0,VALID,97.6026,VALID,0,VALID,19.4523,VALID,134,VALID,0,
2012-07-02, 03:17:05,VALID,914.159,VALID,0,VALID,97.6255,VALID,0,VALID,19.4523,VALID,134,VALID,0,
2012-07-02, 03:18:05,VALID,914.169,VALID,0,VALID,97.6178,VALID,0,VALID,19.4537,VALID,137,VALID,0,
2012-07-02, 03:19:05,VALID,914.197,VALID,0,VALID,97.6331,VALID,0,VALID,19.4147,VALID,129,VALID,0,
2012-07-02, 03:20:05,VALID,914.16,VALID,0,VALID,97.6102,VALID,0,VALID,19.3937,VALID,125,VALID,0,
2012-07-02, 03:21:05,VALID,914.134,VALID,0,VALID,97.6178,VALID,0,VALID,19.4132,VALID,123,VALID,0,
2012-07-02, 03:22:05,VALID,914.153,VALID,0,VALID,97.6331,VALID,0,VALID,19.3937,VALID,123,VALID,0,
2012-07-02, 03:23:05,VALID,914.156,VALID,0,VALID,97.6178,VALID,0,VALID,19.3937,VALID,124,VALID,0,
2012-07-02, 03:24:05,VALID,914.14,VALID,0,VALID,97.6331,VALID,0,VALID,19.4147,VALID,128,VALID,0,
2012-07-02, 03:25:05,VALID,914.168,VALID,0,VALID,97.595,VALID,0,VALID,19.3742,VALID,139,VALID,0,
2012-07-02, 03:26:05,VALID,914.159,VALID,0,VALID,97.6178,VALID,0,VALID,19.4342,VALID,154,VALID,0,
2012-07-02, 03:27:05,VALID,914.15,VALID,0,VALID,97.6331,VALID,0,VALID,19.4732,VALID,163,VALID,0,
2012-07-02, 03:28:05,VALID,914.169,VALID,0,VALID,97.6102,VALID,0,VALID,19.4927,VALID,162,VALID,0,
2012-07-02, 03:29:05,VALID,914.175,VALID,0,VALID,97.6255,VALID,0,VALID,19.4913,VALID,162,VALID,0,
2012-07-02, 03:30:05,VALID,914.194,VALID,0,VALID,97.6255,VALID,0,VALID,19.4913,VALID,164,VALID,0,
2012-07-02, 03:31:05,VALID,914.195,VALID,0,VALID,97.6407,VALID,0,VALID,19.5317,VALID,174,VALID,0,
2012-07-02, 03:32:05,VALID,914.185,VALID,0,VALID,97.6178,VALID,0,VALID,19.5512,VALID,185,VALID,0,
2012-07-02, 03:33:05,VALID,914.189,VALID,0,VALID,97.6331,VALID,0,VALID,19.5498,VALID,160,VALID,0,
2012-07-02, 03:34:05,VALID,914.192,VALID,0,VALID,97.6102,VALID,0,VALID,19.5708,VALID,145,VALID,0,
2012-07-02, 03:35:05,VALID,914.183,VALID,0,VALID,97.6255,VALID,0,VALID,19.5903,VALID,121,VALID,0,
2012-07-02, 03:36:05,VALID,914.146,VALID,0,VALID,97.6026,VALID,0,VALID,19.5693,VALID,129,VALID,0,
2012-07-02, 03:37:05,VALID,914.131,VALID,0,VALID,97.6102,VALID,0,VALID,19.5888,VALID,130,VALID,0,
2012-07-02, 03:38:05,VALID,914.126,VALID,0,VALID,97.6331,VALID,0,VALID,19.6083,VALID,126,VALID,0,
2012-07-02, 03:39:05,VALID,914.088,VALID,0,VALID,97.6331,VALID,0,VALID,19.6293,VALID,136,VALID,0,
2012-07-02, 03:40:05,VALID,914.081,VALID,0,VALID,97.6255,VALID,0,VALID,19.6278,VALID,151,VALID,0,
2012-07-02, 03:41:05,VALID,914.067,VALID,0,VALID,97.6102,VALID,0,VALID,19.6278,VALID,144,VALID,1.45195,
2012-07-02, 03:42:05,VALID,914.052,VALID,0,VALID,97.6026,VALID,0,VALID,19.6473,VALID,137,VALID,0.55625,
2012-07-02, 03:43:05,VALID,914.041,VALID,0,VALID,97.6178,VALID,0,VALID,19.6878,VALID,140,VALID,1.45547,
2012-07-02, 03:44:05,VALID,914.047,VALID,0,VALID,97.6407,VALID,0,VALID,19.6668,VALID,148,VALID,1.47812,
2012-07-02, 03:45:05,VALID,914.039,VALID,0,VALID,97.6026,VALID,0,VALID,19.6863,VALID,137,VALID,0.540625,
2012-07-02, 03:46:05,VALID,914.033,VALID,0,VALID,97.6102,VALID,0,VALID,19.6878,VALID,157,VALID,1.23672,
2012-07-02, 03:47:05,VALID,914.04,VALID,0,VALID,97.6255,VALID,0,VALID,19.6863,VALID,158,VALID,1.48242,
2012-07-02, 03:48:05,VALID,914.055,VALID,0,VALID,97.6102,VALID,0,VALID,19.6863,VALID,162,VALID,1.30977,
2012-07-02, 03:49:05,VALID,914.043,VALID,0,VALID,97.6102,VALID,0,VALID,19.6668,VALID,131,VALID,0.487891,
2012-07-02, 03:50:05,VALID,914.061,VALID,0,VALID,97.6178,VALID,0,VALID,19.6668,VALID,132,VALID,0.901563,
2012-07-02, 03:51:05,VALID,914.064,VALID,0,VALID,97.6255,VALID,0,VALID,19.6668,VALID,140,VALID,0.626562,
2012-07-02, 03:52:05,VALID,914.065,VALID,0,VALID,97.6102,VALID,0,VALID,19.6668,VALID,165,VALID,0.720703,
2012-07-02, 03:53:05,VALID,914.061,VALID,0,VALID,97.6178,VALID,0,VALID,19.6878,VALID,162,VALID,0.894531,
2012-07-02, 03:54:05,VALID,914.083,VALID,0,VALID,97.6026,VALID,0,VALID,19.6473,VALID,107,VALID,0.884375,
2012-07-02, 03:55:05,VALID,914.05,VALID,0,VALID,97.6331,VALID,0,VALID,19.6668,VALID,134,VALID,0.714063,
2012-07-02, 03:56:05,VALID,914.06,VALID,0,VALID,97.6407,VALID,0,VALID,19.6473,VALID,134,VALID,0.950391,
2012-07-02, 03:57:05,VALID,914.06,VALID,0,VALID,97.6255,VALID,0,VALID,19.6473,VALID,163,VALID,0.976953,